Regional Weather Roundup
Issued by NWS

Home | Current Version | Previous Version | Graphics & Text | Print | Product List | Glossary Off
Versions: 1 2 3 4 5 6 7 8 9 10 11 12 13 14 15 16 17 18 19 20 21 22 23 24 25 26 27 28 29 30 31 32 33 34 35 36 37 38 39 40 41 42 43 44 45 46 47 48 49 50

000
ASUS43 KLSX 291007
RWRMO
STLRWRMO ALL

WEATHER SUMMARY FOR MISSOURI
NATIONAL WEATHER SERVICE SPRINGFIELD MO
500 AM CDT SAT APR 29 2017

NOTE: "FAIR" INDICATES FEW OR NO CLOUDS BELOW 12,000 FEET WITH NO
       SIGNIFICANT WEATHER AND/OR OBSTRUCTIONS TO VISIBILITY.
       CURRENT SKY AND/OR WEATHER CONDITIONS ARE NOT AVAILABLE FOR
       CHILLICOTHE AND FARMINGTON.

MOZ001>031-035>038-043-044-053-054-291100-
...NORTHERN AND WESTERN MISSOURI...

CITY           SKY/WX    TMP DP  RH WIND       PRES   REMARKS
KANSAS CTY INT CLOUDY    46  45  96 NE17      29.90F
KANSAS C DTWN  CLOUDY    47  46  97 NE10G18   29.90S
LEE`S SUMMIT   LGT RAIN  46  46 100 NE9       29.90R FOG
ST JOSEPH      CLOUDY    45  45 100 NE12      29.94R
CHILLICOTHE      N/A     46  45  96 NE10      29.95F
KIRKSVILLE     CLOUDY    46  37  71 NE15      29.98F HAZE

$$
MOZ066>068-077>081-088>096-101>105-291100-
...SOUTHWEST MISSOURI...

CITY           SKY/WX    TMP DP  RH WIND       PRES   REMARKS
SPRINGFIELD    CLOUDY    60  58  92 NE13      29.75R
JOPLIN         CLOUDY    57  56  96 N9G20     29.72R THUNDER
BRANSON        CLOUDY    61  61 100 CALM      29.72F

$$
MOZ032>034-039>042-045>050-055>058-069>072-291100-
...CENTRAL MISSOURI...

CITY           SKY/WX    TMP DP  RH WIND       PRES   REMARKS
COLUMBIA       RAIN      55  55 100 N13       29.91R
JEFFERSON CITY RAIN      60  55  83 N8        29.88R
ROLLA          LGT RAIN  57  57 100 E12       29.86F
SEDALIA        FOG       51  51 100 NE16G22   29.87F VSB 1
WHITEMAN AFB   CLOUDY    48  48 100 NE18G29   29.83F FOG
OSAGE BEACH    LGT RAIN  57  56  96 E13G24    29.78F

$$
MOZ051-052-059>065-291100-
...EAST CENTRAL MISSOURI...

CITY           SKY/WX    TMP DP  RH WIND       PRES   REMARKS
ST LOUIS INTL  LGT RAIN  59  55  87 W9        29.95R
SPIRIT OF STL  RAIN      58  58 100 N7        29.90F FOG
ST CHARLES     LGT RAIN  58  57  97 W7        29.95R

$$
MOZ072>076-082>087-097>100-106>115-291100-
...SOUTH CENTRAL AND SOUTHEAST MISSOURI...

CITY           SKY/WX    TMP DP  RH WIND       PRES   REMARKS
CAPE GIRARDEAU LGT RAIN  66  63  90 N7        29.81R FOG
FARMINGTON     TSTM      59  58  96 N10       29.86R
POPLAR BLUFF   CLOUDY    74  71  91 S9        29.78R
WEST PLAINS    CLOUDY    65  63  93 N10       29.80R

$$




USA.gov is the U.S. government's official web portal to all federal, state and local government web resources and services.